Faro current weather conditions

sailwx.info

Wind from 190 at 10 knots

Air temperature 21.0° C
Dewpoint 17.0° C

Last reported at 2014-Aug-20 11:30 UTC.
Time now 2014-Aug-20 12:46 UTC

Location: N 37°01' W 007°58'.
View on Google Maps.

See reports from other nearby stations

  
Tides and Currents Weather Stations Pressure Air Temp Water Temp Dewpoint Dewpoint Depression Visibility Wind Speed Wind Dir Waves Ship Positions
date/time (UTC)wind fromknots sea level pressurealtimeterstation pressurevisibilityair tempwater tempwave heightnotes
2014-Aug-20 11:30 190 10 21.0
2014-Aug-20 11:00 190 10 22.0
2014-Aug-20 10:30 190 10 21.0
2014-Aug-20 10:00 170 7 21.0
2014-Aug-20 09:30 170 5 21.0
2014-Aug-20 09:00 130 5 22.0
2014-Aug-20 08:30 120 5 21.0
2014-Aug-20 08:00 120 6 20.0
2014-Aug-20 07:30 090 4 20.0
2014-Aug-20 07:00 050 5 19.0
2014-Aug-20 06:30 040 6 18.0
2014-Aug-20 06:00 020 4 18.0
2014-Aug-20 05:30 290 5 17.0
2014-Aug-20 05:00 030 4 16.0
2014-Aug-20 04:30 040 4 17.0
2014-Aug-20 04:00 340 10 18.0
2014-Aug-20 03:30 310 6 17.0
2014-Aug-20 03:00 330 6 18.0
2014-Aug-20 02:30 280 11 18.0
2014-Aug-20 02:00 270 6 17.0
2014-Aug-20 01:30 270 6 17.0
2014-Aug-20 01:00 290 7 18.0
2014-Aug-20 00:30 270 7 18.0
2014-Aug-20 00:00 280 8 18.0
2014-Aug-19 23:30 280 6 19.0
2014-Aug-19 23:00 300 7 20.0
2014-Aug-19 22:30 300 7 20.0
2014-Aug-19 22:00 270 7 19.0
2014-Aug-19 21:30 290 6 21.0
2014-Aug-19 21:00 280 9 21.0
2014-Aug-19 20:30 310 12 22.0
2014-Aug-19 20:00 310 12 23.0
2014-Aug-19 19:30 310 12 24.0
2014-Aug-19 19:00 290 10 25.0
2014-Aug-19 18:52 280 10 24.0
2014-Aug-19 18:30 280 16 22.0
2014-Aug-19 18:00 270 19 22.0
2014-Aug-19 17:30 260 18 21.0
2014-Aug-19 17:00 260 19 22.0
2014-Aug-19 16:30 260 18 23.0
2014-Aug-19 16:00 260 19 22.0
2014-Aug-19 15:30 260 18 23.0
2014-Aug-19 15:00 260 17 23.0
2014-Aug-19 14:30 260 17 23.0
2014-Aug-19 14:00 260 15 22.0
2014-Aug-19 13:30 250 15 22.0
2014-Aug-19 13:00 260 13 22.0
2014-Aug-19 12:30 250 12 22.0
2014-Aug-19 12:00 250 12 22.0
2014-Aug-19 11:30 250 10 21.0
2014-Aug-19 11:00 250 12 21.0
2014-Aug-19 10:30 250 9 24.0
2014-Aug-19 10:00 240 7 23.0
2014-Aug-19 09:30 250 8 22.0
2014-Aug-19 09:00 22.0
2014-Aug-19 08:30 21.0
2014-Aug-19 08:00 010 4 20.0
2014-Aug-19 07:30 360 6 19.0
2014-Aug-19 07:00 360 3 18.0
2014-Aug-19 06:30 010 5 17.0
2014-Aug-19 06:00 360 4 16.0
2014-Aug-19 05:30 340 4 17.0
2014-Aug-19 05:00 350 5 16.0
2014-Aug-19 04:30 330 5 17.0
2014-Aug-19 04:00 320 5 17.0
2014-Aug-19 03:30 310 5 17.0
2014-Aug-19 03:00 300 7 18.0
2014-Aug-19 02:30 320 10 18.0
2014-Aug-19 02:00 320 10 19.0
2014-Aug-19 01:30 320 9 19.0
2014-Aug-19 01:00 310 7 19.0
2014-Aug-19 00:30 300 6 19.0
2014-Aug-19 00:00 310 9 20.0
2014-Aug-18 23:30 310 7 21.0
2014-Aug-18 23:00 310 9 21.0
2014-Aug-18 22:30 310 10 22.0
2014-Aug-18 22:00 290 6 22.0
2014-Aug-18 21:30 310 6 23.0
2014-Aug-18 21:00 300 7 23.0
2014-Aug-18 20:30 300 10 24.0
2014-Aug-18 20:00 300 9 25.0
2014-Aug-18 19:40 290 7 24.0
2014-Aug-18 19:30 270 9 22.0
2014-Aug-18 19:00 270 11 22.0
2014-Aug-18 18:30 270 12 23.0
2014-Aug-18 18:00 280 13 25.0
2014-Aug-18 17:30 280 11 25.0
2014-Aug-18 17:00 260 10 25.0
2014-Aug-18 16:30 270 9 25.0
2014-Aug-18 16:00 260 10 24.0
2014-Aug-18 15:30 250 8 5.424.0
2014-Aug-18 15:00 210 7 24.0
2014-Aug-18 14:30 190 9 25.0
2014-Aug-18 14:00 190 8 26.0
2014-Aug-18 13:50 200 8 5.426.0
2014-Aug-18 13:30 130 7 5.426.0
2014-Aug-18 13:00 120 8 5.427.0
2014-Aug-18 12:30 130 8 5.426.0
2014-Aug-18 12:00 130 9 5.426.0